Preview of NWS' New Version of Forecast
This preview is not operational and should not be used for support decisions.

Regional Weather Roundup (RWR)

Issued by National Weather Service (NWS)

                            
000
ASUS45 KABQ 200510
RWRNM 
NEW MEXICO REGIONAL WEATHER ROUNDUP
NATIONAL WEATHER SERVICE ALBUQUERQUE NM
1100 PM MDT WED JUN 19 2019

NOTE: "FAIR" MEANS FEW OR NO CLOUDS BELOW 12,000 FEET AGL WITH NO
       SIGNIFICANT WEATHER OR OBSTRUCTIONS TO VISION.

      THIS PRODUCT IS RELEASED AS TWO VERSIONS.  ONE VERSION NEAR
      THE TOP OF THE HOUR CONTAINING PRELIMINARY DATA FROM ALBUQUERQUE
      AND OTHER STATIONS.  A FINAL VERSION WITH ADDITIONAL DATA IS 
      ISSUED ABOUT 10 MINUTES AFTER THE HOUR.
 
NMZ501-503-504-510>518-200600-
NORTHWEST PLATEAU/NORTHCENTRAL MOUNTAINS
  
CITY           SKY/WX    TMP DP  RH WIND       PRES   REMARKS
FARMINGTON     FAIR      64  28  25 CALM      29.98S                  
LOS ALAMOS       N/A     69  30  23 SW7       30.15S                  
SANTA FE       FAIR      63  29  27 N9        30.06S                  
TAOS           FAIR      62  30  29 SW6       30.14S                  
ANGEL FIRE       N/A     51  32  48 W6        30.20F                  

$$
NMZ402-403-502-505>509-200600-
WESTCENTRAL MOUNTAINS/SOUTHWEST MOUNTAINS
  
CITY           SKY/WX    TMP DP  RH WIND       PRES   REMARKS
GALLUP         FAIR      61  29  29 CALM      30.12R                  
GRANTS         FAIR      68  25  19 W9        30.14R                  
SILVER CITY    FAIR      60  17  18 NW10      30.10R                  

$$
NMZ407-409-411-412-200600-
SOUTHERN DESERTS
  
CITY           SKY/WX    TMP DP  RH WIND       PRES   REMARKS
DEMING         FAIR      77  21  12 W10       30.00R                  
LAS CRUCES     FAIR      73  20  14 W10       30.00R                  
HOLLOMAN AFB   FAIR      81  22  11 SE8       29.96R                  
ALAMOGORDO     FAIR      75  21  13 S9        29.97R                  
T OR C         FAIR      79  14   8 NW7       29.99R                  

$$
NMZ519>523-200600-
CENTRAL VALLEYS/CENTRAL HIGHLANDS
  
CITY           SKY/WX    TMP DP  RH WIND       PRES   REMARKS
ALBUQUERQUE    FAIR      80  32  17 CALM      30.00R                  
DOUBLE EAGLE   FAIR      69  31  23 W7        30.04S                  
MORIARTY ARPT  FAIR      60  33  36 CALM      30.08S                  
CLINES CORNERS FAIR      60  30  32 W8        30.13S                  
BELEN          FAIR      71  23  16 W7        30.00S                  
SOCORRO        FAIR      80  21  11 W9        29.97S                  

$$
NMZ524>526-539-540-200600-
SOUTHCENTRAL MOUNTAINS
  
CITY           SKY/WX    TMP DP  RH WIND       PRES   REMARKS
RUIDOSO        FAIR      70  16  12 SW16G24   30.15S                  

$$
NMZ527>531-200600-
NORTHEAST HIGHLANDS/NORTHEAST PLAINS
  
CITY           SKY/WX    TMP DP  RH WIND       PRES   REMARKS
LAS VEGAS      FAIR      64  30  27 NW9       30.09S                  
RATON          FAIR      62  39  42 E5        30.00R                  
CLAYTON        FAIR      63  52  67 S10       29.93R                  

$$
NMZ532>537-200600-
EASTCENTRAL PLAINS
  
CITY           SKY/WX    TMP DP  RH WIND       PRES   REMARKS
SANTA ROSA     FAIR      74  34  22 SW5       29.93R                  
TUCUMCARI      FAIR      70  49  47 CALM      29.84R                  
CANNON AFB     FAIR      69  53  57 E6        29.92R                  
CLOVIS AIRPORT FAIR      71  57  61 SE12      29.92R                  

$$
NMZ028-029-538-200600-
SOUTHEAST PLAINS
  
CITY           SKY/WX    TMP DP  RH WIND       PRES   REMARKS
ROSWELL        FAIR      83  29  14 W12       29.86R                  
ARTESIA        FAIR      81  30  16 W16       29.88R                  
CARLSBAD       FAIR      82  24  12 W15       29.84R                  


$$